This is the latest recevied weather packets stored in our database for station/object GCEMA. If no packets are shown the sender has not sent any weather packets the latest 10 day(s).
| Time | Temp. | Humidity | Pressure | Rain* | Wind** | Luminosity | Snow |
|---|---|---|---|---|---|---|---|
| 1777413050 | 21.11° C | - | 1010.1 hPa | 0 mm | 0 m/s | - | - |
| 1777412870 | 21.11° C | - | 1010.1 hPa | 0 mm | 0 m/s | - | - |
| 1777412691 | 21.67° C | - | 1010.1 hPa | 0 mm | 0 m/s | - | - |
| 1777412511 | 21.67° C | - | 1010.2 hPa | 0 mm | 0 m/s | - | - |
| 1777412329 | 21.11° C | - | 1010.3 hPa | 0 mm | 0 m/s | - | - |
| 1777412150 | 22.78° C | - | 1010.2 hPa | 0 mm | 0 m/s | - | - |
| 1777411970 | 22.22° C | - | 1010.2 hPa | 0 mm | 0 m/s | - | - |
| 1777411790 | 21.67° C | - | 1010.3 hPa | 0 mm | 0 m/s | - | - |
| 1777411610 | 22.22° C | - | 1010.3 hPa | 0 mm | 0 m/s | - | - |
| 1777411248 | 22.22° C | - | 1010.4 hPa | 0 mm | 0 m/s | - | - |
| 1777411071 | 21.67° C | - | 1010.6 hPa | 0 mm | 0 m/s | - | - |
| 1777410889 | 21.67° C | - | 1010.5 hPa | 0 mm | 0 m/s | - | - |
| 1777410710 | 23.33° C | - | 1010.6 hPa | 0 mm | 0 m/s | - | - |
| 1777410348 | 22.78° C | - | 1010.6 hPa | 0 mm | 0 m/s | - | - |
| 1777410168 | 22.22° C | - | 1010.8 hPa | 0 mm | 0 m/s | - | - |
| 1777409991 | 21.11° C | - | 1010.8 hPa | 0 mm | 0 m/s | - | - |
| 1777409809 | 22.22° C | - | 1010.8 hPa | 0 mm | 0 m/s | - | - |
| 1777409626 | 21.11° C | - | 1010.8 hPa | 0 mm | 0 m/s | - | - |
| 1777409447 | 22.78° C | - | 1010.8 hPa | 0 mm | 0 m/s | - | - |
| 1777409267 | 22.22° C | - | 1010.9 hPa | 0 mm | 0 m/s | - | - |
| 1777409088 | 22.78° C | - | 1011 hPa | 0 mm | 0 m/s | - | - |
| 1777408908 | 22.22° C | - | 1011.3 hPa | 0 mm | 0 m/s | - | - |
| 1777408367 | 21.11° C | - | 1011.3 hPa | 0 mm | 0 m/s | - | - |
| 1777408187 | 20.56° C | - | 1011.4 hPa | 0 mm | 0 m/s | - | - |
| 1777408008 | 21.11° C | - | 1011.4 hPa | 0 mm | 0 m/s | - | - |
* Rain latest hour (hover to see other rain measurements)
** Current wind speed in m/s (hover to see current wind gust speed)